Tracking 22287 objects as of 27-Jan-2021
HD Live streaming from Space Station
objects crossing your sky now

GLOBALSTAR M055

Track GLOBALSTAR M055 now!
10-day predictions
GLOBALSTAR M055 is classified as:


NORAD ID: 25910
Int'l Code: 1999-049D
Perigee: 1,553.0 km
Apogee: 1,565.4 km
Inclination: 52.0 °
Period: 117.1 minutes
Semi major axis: 7930 km
RCS: 2.0613 m2 (large)
Launch date: September 22, 1999
Source: Globalstar (GLOB)
Launch site: TYURATAM MISSILE AND SPACE COMPLEX (TTMTR)
aabbcc
Your satellite tracking list
Your tracking list is empty




NASA's NSSDC Master Catalog

Two Line Element Set (TLE):
1 25910U 99049D   21026.84735236 -.00000061  00000-0  28177-3 0  9993
2 25910  52.0007 266.1202 0007806  44.7531 315.3949 12.29356773971216
Source of the keplerian elements: AFSPC